Lid_Strength_Index
0 0 0 0 0 -0 0 -0 -0 -0 -1 -1 -0 -0 -1 -0 -1 -1 -1 -1 -0 -1 -1 -0 -0 -1 0 -0 -0 -0 1 1 3 1 0 -0 -1 -1 -1 -2 -2 -1 -1
0 0 0 0 -0 0 0 -0 -1 -0 -1 -0 -0 0 -0 -0 -1 -0 -0 -1 -0 0 -0 -0 -0 0 -0 -1 0 0 0 0 1 2 1 0 -1 -1 -1 -1 -1 -1 -1
0 0 0 0 0 0 0 -0 -0 -0 -0 -0 -0 0 -0 -0 -0 -1 -1 -0 -0 -0 -0 -0 -0 -0 0 0 0 0 -0 0 0 1 2 0 -0 -0 -1 -1 -1 -1 -1
0 1 1 1 0 0 -0 -0 -0 -0 -0 -1 -0 0 -0 -0 -0 -0 -0 -0 -0 -0 -0 -0 -0 -0 -0 -0 0 -0 -0 1 -0 1 1 1 0 -1 -0 1 1 -0 0
0 1 1 0 0 -0 -0 0 -0 -0 -0 -0 -0 -0 -0 -0 0 -0 -0 -0 -0 0 -0 -0 -1 -0 -0 -0 0 0 0 1 2 3 3 2 1 1 1 1 1 1 -0
1 1 0 0 -0 -0 -0 -0 0 0 1 0 1 1 1 0 1 0 -0 0 -0 0 0 -0 -0 -0 -0 -0 1 0 0 0 1 2 2 2 0 1 1 1 1 2 3
2 2 1 1 1 2 1 1 1 1 0 1 1 0 1 0 2 1 0 -0 0 0 -0 0 0 -0 -0 -0 0 0 1 1 2 0 1 1 1 0 0 1 1 2 2
2 2 1 2 3 3 2 1 1 1 1 1 1 0 1 0 3 2 1 0 0 -0 -0 -0 -0 -0 -1 -0 -0 0 -0 -0 -0 0 0 1 0 -1 -1 -0 0 0 0
2 2 1 1 1 1 1 1 1 1 1 1 1 0 1 0 4 3 1 0 0 0 -0 -0 -0 -0 1 2 -0 0 0 -0 1 2 3 3 3 3 3 2 2 2 2
1 1 0 0 0 1 1 1 0 1 1 1 1 0 1 1 5 4 2 0 1 1 -0 -0 1 2 2 3 1 0 1 0 -0 -0 0 2 2 1 2 1 1 2 2
1 0 0 0 0 0 1 1 1 1 1 1 1 0 1 1 4 5 4 0 1 1 1 1 0 3 5 6 4 1 2 2 1 1 1 0 -0 -0 -0 -1 -1 0 1
0 0 1 0 1 1 1 1 1 1 1 1 1 2 2 3 5 6 5 4 3 2 1 1 4 6 7 6 5 3 3 4 3 2 1 1 1 0 -0 -1 -2 -2 -1
1 1 1 1 0 -0 1 1 2 2 2 3 4 4 4 3 4 5 5 5 4 3 2 4 6 7 6 5 5 4 5 4 2 1 1 1 0 -0 -1 -1 -1 -2 -2
1 1 1 1 1 1 1 1 1 2 2 2 2 3 2 2 2 2 2 2 3 2 2 2 3 4 4 4 4 4 4 3 1 1 1 1 0 0 0 -0 0 0 1
1 1 1 1 1 1 1 2 1 2 4 2 2 2 3 3 2 4 4 1 0 2 2 1 1 2 2 2 2 1 1 0 1 1 1 1 1 1 1 0 0 1 2
1 1 1 1 1 1 1 1 8 8 9 10 10 5 2 8 9 9 9 8 8 7 1 2 2 2 2 2 2 1 1 1 1 1 1 1 2 1 1 1 1 1 2
1 0 1 1 1 1 1 1 2 4 8 9 10 10 10 10 10 10 10 9 8 5 3 2 2 2 2 2 2 2 2 1 0 1 2 1 1 1 2 2 1 1 2
1 4 1 1 1 1 1 1 1 2 2 2 7 6 9 9 9 8 9 7 1 3 1 2 2 1 1 2 1 2 1 1 1 1 1 1 1 1 2 2 2 2 2
0 1 1 1 1 1 1 1 1 1 1 1 1 4 5 7 7 7 7 1 2 3 2 2 1 2 1 0 1 1 0 1 1 1 1 1 1 2 2 2 2 4 4
1 2 1 0 1 1 1 2 1 0 1 1 1 3 3 2 2 1 1 1 2 2 1 1 1 1 1 1 1 1 1 1 1 1 1 1 1 1 2 2 2 2 2
-0 0 2 0 0 -0 1 2 2 2 2 2 2 3 7 3 2 1 1 1 0 1 1 1 0 0 0 0 0 0 1 1 0 1 1 1 1 2 1 1 1 1 2
2 2 3 3 4 4 3 3 3 2 2 2 2 2 4 2 1 1 1 1 1 0 0 -0 0 -0 -0 -0 0 0 0 1 0 0 1 1 1 2 2 2 2 2 2
4 4 4 3 3 4 2 2 2 2 2 2 2 2 1 1 1 1 1 1 0 0 0 0 0 0 -0 -0 -0 -0 0 1 1 1 1 2 2 2 2 2 2 3 3
3 3 3 3 3 2 2 2 1 3 2 1 1 1 1 1 1 0 0 -0 -0 -0 -0 -0 -0 -0 -0 0 -0 0 0 0 0 1 1 2 2 2 2 2 3 2 3
3 3 2 2 2 1 1 1 1 1 1 1 1 1 1 1 1 0 0 0 0 -0 -0 -0 -0 -0 -1 -1 -0 -0 5 9 5 5 1 1 2 2 2 2 2 3 2
2 1 1 1 1 1 1 1 1 1 1 1 1 1 1 1 1 0 0 0 0 0 0 -0 -0 -1 -0 -0 1 6 9 9 6 11 4 2 2 2 3 3 3 3 3